Retour au catalogue

KUIPER-00480

ActifCommunicationsLEO
NORAD 68876·PAYLOAD·🇺🇸 United States

Lancé Apr 28, 2026 depuis Cape Canaveral Space Force Station

Loading…

Prochains Passages (prochaines 24 heures)

TLE

FraisSource: CelesTrak SupGP

Époque: Sep 14, 2026, 21:52 UTC

1 68876C 26095N   26257.91118056  .00038083  00000+0  49834-2 0  2578
2 68876  51.9027 193.9178 0000853  93.6255 144.2072 14.79907981    11

Suivez KUIPER-00480 en temps réel avec AllMySat

Download on the App Store